This is the latest recevied weather packets stored in our database for station/object KE2HEH. If no packets are shown the sender has not sent any weather packets the latest 1 day(s).
| Time | Temp. | Humidity | Pressure | Rain* | Wind** | Luminosity | Snow |
|---|---|---|---|---|---|---|---|
| 1778045155 | 12.22° C | 92% | 1011.8 hPa | 0 mm | 9.83 m/s, 195° | 0 W/m² | - |
| 1778044853 | 12.78° C | 92% | 1011.9 hPa | 0 mm | 11.18 m/s, 184° | 0 W/m² | - |
| 1778044549 | 12.78° C | 92% | 1011.7 hPa | 0 mm | 12.07 m/s, 199° | 0 W/m² | - |
| 1778044246 | 12.78° C | 92% | 1011.9 hPa | 0 mm | 11.18 m/s, 202° | 0 W/m² | - |
| 1778043944 | 12.78° C | 92% | 1011.7 hPa | 0 mm | 11.62 m/s, 204° | 0 W/m² | - |
| 1778043641 | 12.78° C | 92% | 1011.9 hPa | 0 mm | 12.07 m/s, 209° | 0 W/m² | - |
| 1778043338 | 12.78° C | 92% | 1011.7 hPa | 0 mm | 12.07 m/s, 213° | 0 W/m² | - |
| 1778043034 | 12.78° C | 92% | 1011.9 hPa | 0 mm | 10.73 m/s, 165° | 0 W/m² | - |
| 1778042732 | 12.78° C | 92% | 1011.9 hPa | 0 mm | 11.18 m/s, 157° | 0 W/m² | - |
| 1778042429 | 12.78° C | 92% | 1012 hPa | 0 mm | 11.18 m/s, 230° | 0 W/m² | - |
| 1778042126 | 12.78° C | 92% | 1012.2 hPa | 0 mm | 12.07 m/s, 206° | 0 W/m² | - |
| 1778041825 | 12.78° C | 91% | 1011.9 hPa | 0 mm | 10.73 m/s, 229° | 0 W/m² | - |
| 1778041523 | 12.78° C | 91% | 1011.9 hPa | 0 mm | 10.73 m/s, 221° | 0 W/m² | - |
| 1778041221 | 12.78° C | 91% | 1011.8 hPa | 0 mm | 10.73 m/s, 182° | 0 W/m² | - |
| 1778040919 | 12.78° C | 91% | 1012 hPa | 0 mm | 10.28 m/s, 182° | 0 W/m² | - |
| 1778040616 | 12.78° C | 91% | 1012 hPa | 0 mm | 10.28 m/s, 198° | 0 W/m² | - |
| 1778040314 | 12.78° C | 91% | 1012.1 hPa | 0 mm | 10.73 m/s, 189° | 0 W/m² | - |
| 1778040009 | 12.78° C | 91% | 1012 hPa | 0 mm | 11.62 m/s, 184° | 0 W/m² | - |
| 1778039706 | 12.78° C | 90% | 1011.7 hPa | 0 mm | 13.41 m/s, 219° | 0 W/m² | - |
| 1778039403 | 12.78° C | 90% | 1011.8 hPa | 0 mm | 10.73 m/s, 196° | 0 W/m² | - |
| 1778039101 | 12.78° C | 90% | 1012 hPa | 0 mm | 12.07 m/s, 184° | 0 W/m² | - |
| 1778038797 | 13.33° C | 90% | 1011.8 hPa | 0 mm | 11.62 m/s, 198° | 0 W/m² | - |
| 1778038495 | 13.33° C | 90% | 1011.8 hPa | 0 mm | 12.52 m/s, 209° | 0 W/m² | - |
| 1778038191 | 13.33° C | 90% | 1011.9 hPa | 0 mm | 12.52 m/s, 219° | 0 W/m² | - |
| 1778037889 | 13.33° C | 90% | 1011.6 hPa | 0 mm | 12.96 m/s, 196° | 0 W/m² | - |
* Rain latest hour (hover to see other rain measurements)
** Current wind speed in m/s (hover to see current wind gust speed)